Simultaneous Nadir Overpasses (SNOs) Predictions

Prediction of SNOs between NOAA-15 and METOP-C Satellite Orbit:

Table of predicted SNOs for the next 14.0 days since TLE Epoch: 11/11/2023
Index Date (NOAA-15) Time (NOAA-15) Lat,Lon (NOAA-15) SZA (NOAA-15 ) Date (METOP-C) Time (METOP-C) Lat,Lon (METOP-C) SZA (METOP-C ) Distance(km) Time Diff (sec)
1 11/17/2023 07:19:43 80.99, 110.22 102.31 11/17/2023 07:18:37 80.98, 106.58 101.91 63.52 66
2 11/17/2023 08:10:15 -81.07, -84.00 77.79 11/17/2023 08:09:13 -81.07, -83.90 77.80 1.92 62
3 11/17/2023 09:00:48 81.07, 83.34 102.22 11/17/2023 08:59:53 81.07, 83.32 102.20 0.40 55
4 11/17/2023 09:51:16 -81.07,-109.43 77.79 11/17/2023 09:50:35 -81.07,-109.38 77.80 1.21 41
5 11/17/2023 10:41:49 81.08, 57.92 102.23 11/17/2023 10:41:15 81.06, 57.84 102.19 1.88 34
6 11/17/2023 11:32:16 -81.07,-134.49 77.76 11/17/2023 11:31:56 -81.08,-134.48 77.76 1.21 20
7 11/17/2023 12:22:49 81.07, 32.87 102.26 11/17/2023 12:22:36 81.07, 32.74 102.24 2.30 13
8 11/17/2023 13:13:17 -81.07,-159.91 77.75 11/17/2023 13:13:18 -81.07,-159.96 77.76 0.82 1
9 11/17/2023 14:03:50 81.07, 7.45 102.26 11/17/2023 14:03:58 81.07, 7.27 102.24 3.23 8
10 11/17/2023 14:54:17 -81.06, 175.03 77.72 11/17/2023 14:54:39 -81.08, 174.94 77.71 2.36 22
11 11/17/2023 15:44:51 81.08, -17.97 102.27 11/17/2023 15:45:19 81.08, -17.84 102.29 2.44 28
12 11/17/2023 16:35:18 -81.07, 149.61 77.72 11/17/2023 16:36:01 -81.08, 149.46 77.71 2.50 43
13 11/17/2023 17:25:51 81.07, -43.03 102.30 11/17/2023 17:26:40 81.09, -42.94 102.34 2.03 49
14 11/17/2023 18:16:19 -81.08, 124.18 77.71 11/17/2023 18:17:22 -81.08, 124.36 77.66 3.08 63



Historial Predications of SNOs between NOAA-15 and METOP-C
